Estación municipal de St. Hilari Sacalm (La Selva, Guilleries)

Consulta los datos en tiempo real de la estación municipal de St. Hilari Sacalm





Hora UTC 05:55
Temperatura 9.2 ºC
Humedad 84.0 %
Presión 1011.4 hPa
Pluja 0.0 mm
Velocidad viento 1.0 km/h
Dirección viento NNW
Radiación solar 185.3 W/m²

Webcam

Datos diarios 2026-05-06



Hora UTC (invierno +1h; verano +2h)
Temperatura (ºC) Humedad (%) Presión (hPa) Velocidad viento (km/h) Precipitación (mm) Radiación solar (W/m²)
Hora UTC Aire Humedad Presión Vel. Dir. Vel. Max Dir. Intent. máx 5 min. Rad. Sol.
00:05 7.0 94.4 1011.1 0.0 W 0.0 W 0.0 0.1
00:10 7.1 94.9 1011.0 0.0 NNE 0.0 SW 0.0 0.1
00:15 7.0 94.6 1011.0 0.0 NNE 0.0 S 0.0 0.1
00:20 6.8 94.5 1011.0 0.0 NNE 0.0 W 0.0 0.1
00:25 6.7 94.8 1010.9 0.0 NNE 0.0 NW 0.0 0.1
00:30 6.7 95.0 1010.9 0.0 NNE 0.0 NW 0.0 0.1
00:35 6.8 95.2 1010.9 0.0 NNE 0.0 SW 0.0 0.1
00:40 7.0 95.4 1010.8 0.0 NNE 0.0 S 0.0 0.1
00:45 7.1 95.3 1010.8 0.0 NNE 0.0 SW 0.0 0.1
00:50 7.2 95.0 1010.8 0.0 NNE 0.0 SSW 0.0 0.1
00:55 7.3 95.0 1010.8 0.0 SSE 3.4 SSE 0.0 0.1
01:00 7.5 94.4 1010.7 0.1 SSW 6.1 SSW 0.0 0.1
01:05 7.5 93.7 1010.7 0.0 NNE 0.0 SW 0.0 0.1
01:10 7.5 92.9 1010.7 0.0 NNE 0.0 S 0.0 0.1
01:15 7.4 92.4 1010.7 0.0 NNE 0.0 SW 0.0 0.1
01:20 7.4 92.1 1010.7 0.0 NNE 0.0 SW 0.0 0.1
01:25 7.3 91.9 1010.7 0.0 NNE 0.0 SW 0.0 0.1
01:30 7.5 92.0 1010.6 1.1 SSW 11.5 SW 0.0 0.1
01:35 7.6 91.6 1010.6 0.0 SW 3.4 SW 0.0 0.1
01:40 7.8 90.9 1010.6 0.0 NNE 0.0 S 0.0 0.1
01:45 7.7 90.0 1010.7 0.5 SSW 6.1 S 0.0 0.1
01:50 7.8 90.0 1010.6 0.0 NNE 0.0 SSW 0.0 0.1
01:55 7.7 89.4 1010.6 0.0 NNE 0.0 S 0.0 0.1
02:00 7.5 89.1 1010.5 0.0 NNE 0.0 WSW 0.0 0.1
02:05 7.6 89.4 1010.6 0.0 NNE 0.0 SSW 0.0 0.1
02:10 7.7 89.0 1010.6 0.0 NNE 0.0 SSW 0.0 0.1
02:15 7.6 88.6 1010.6 0.6 SSW 8.8 SW 0.0 0.1
02:20 7.6 88.9 1010.6 0.0 NNE 0.0 SW 0.0 0.1
02:25 7.5 89.0 1010.6 0.0 NNE 0.0 S 0.0 0.1
02:30 7.5 89.4 1010.7 0.0 NNE 0.0 S 0.0 0.1
02:35 7.4 89.7 1010.7 0.0 NNE 0.0 SW 0.0 0.1
02:40 7.3 90.0 1010.8 0.0 NNE 0.0 SSW 0.0 0.1
02:45 7.2 90.3 1010.8 0.0 NNE 0.0 S 0.0 0.1
02:50 7.0 90.3 1010.7 0.0 SW 3.4 WSW 0.0 0.1
02:55 6.8 90.5 1010.8 0.0 NNE 0.0 SW 0.0 0.1
03:00 6.5 90.7 1010.8 0.0 NNE 0.0 W 0.0 0.1
03:05 6.4 91.2 1010.8 0.0 NNE 0.0 WSW 0.0 0.1
03:10 6.2 91.9 1010.8 0.0 NNE 0.0 W 0.0 0.1
03:15 6.1 92.4 1010.8 0.0 NNE 0.0 SW 0.0 0.1
03:20 6.2 93.1 1010.7 0.0 NNE 0.0 SW 0.0 0.1
03:25 6.2 93.6 1010.8 0.0 SW 3.4 SW 0.0 0.1
03:30 6.4 93.8 1010.8 0.0 NNE 0.0 W 0.0 0.1
03:35 6.5 93.7 1010.7 0.0 NNE 0.0 WNW 0.0 0.1
03:40 6.6 93.4 1010.7 0.0 NNE 0.0 SW 0.0 0.1
03:45 6.3 92.7 1010.6 0.1 W 6.1 W 0.0 0.1
03:50 6.1 92.7 1010.6 0.0 NNE 0.0 WSW 0.0 0.1
03:55 6.0 93.1 1010.6 0.5 WNW 8.8 WNW 0.0 0.1
04:00 6.2 93.8 1010.6 0.8 NW 11.5 W 0.0 0.1
04:05 6.4 93.8 1010.6 2.5 NW 11.5 NNW 0.0 0.1
04:10 6.5 93.6 1010.6 1.3 NW 14.2 NW 0.0 0.1
04:15 6.4 93.2 1010.6 1.5 NW 11.5 W 0.0 0.1
04:20 6.3 93.1 1010.5 3.4 NNW 11.5 NW 0.0 0.2
04:25 6.3 93.4 1010.6 0.3 WNW 6.1 WNW 0.0 0.4
04:30 6.4 93.5 1010.7 0.2 WSW 6.1 WSW 0.0 1.1
04:35 6.2 93.3 1010.8 0.0 WSW 3.4 WSW 0.0 2.1
04:40 6.2 93.5 1010.8 0.0 W 3.4 WNW 0.0 3.5
04:45 6.2 93.3 1010.8 0.0 NNE 0.0 NW 0.0 5.1
04:50 6.2 93.6 1010.9 0.0 NNE 0.0 WNW 0.0 7.1
04:55 6.2 93.7 1010.9 0.2 WNW 8.8 WNW 0.0 9.4
05:00 6.2 93.6 1010.9 1.1 NW 11.5 NNW 0.0 12.1
05:05 6.3 93.5 1010.9 0.6 WNW 8.8 NNW 0.0 15.1
05:10 6.4 93.4 1010.9 2.4 WNW 11.5 NNW 0.0 44.3
05:15 6.5 93.3 1010.9 0.4 WNW 8.8 WNW 0.0 74.2
05:20 6.6 93.1 1011.0 1.3 WNW 11.5 W 0.0 86.4
05:25 6.9 92.4 1011.0 0.2 W 8.8 W 0.0 91.8
05:30 7.5 90.9 1011.1 0.0 NNE 0.0 SSW 0.0 89.7
05:35 7.7 89.6 1011.2 0.9 WNW 8.8 W 0.0 126.4
05:40 8.0 89.0 1011.2 0.6 W 6.1 WNW 0.0 141.1
05:45 8.6 88.6 1011.3 0.6 W 6.1 W 0.0 155.2
05:50 9.2 86.3 1011.3 0.5 WNW 6.1 WNW 0.0 169.6
05:55 9.2 84.0 1011.4 1.0 NNW 11.5 NW 0.0 185.3
Máxima 9.2 95.4 1011.4 3.4 NNW 14.2 NW 0.0 185.3
Mínima 6.0 84.0 1010.5
Total 0.0